User: anonymous   Login
Location: Plymouth
(43.7570°N, 71.6890°W)
Time: 02:47:11
(UTC-04:00)
Language:

Meteor 1-28 Rocket - Orbit

View from above orbital plane
View from above orbital plane
View from above satellite
View from above satellite

Ground track
Ground track

The orbit data is extracted from the following two-line orbital elements,

1 10114U 77057B   16150.85146589  .00000637  00000-0  36096-4 0  9996
2 10114  97.2043 346.5514 0013187 213.0968 146.9442 15.16253662125455
Epoch (UTC): 29 May 2016 20:26:06
Eccentricity: 0.0013187
inclination: 97.2043°
perigee height: 508 km
apogee height: 526 km
right ascension of ascending node: 346.5514°
argument of perigee: 213.0968°
revolutions per day: 15.16253662
mean anomaly at epoch: 146.9442°
orbit number at epoch: 12545

The dashed part of the orbit path shows where the satellite is in the earth's shadow,  

DLR